Torna al catalogo

STARLINK-34084

AttivoComunicazioniVLEO
NORAD 63970·PAYLOAD·🇺🇸 United States

Lanciato May 13, 2025 da Cape Canaveral Space Force Station

Loading…

Prossimi Passaggi (prossime 24 ore)

TLE

AggiornatoSource: CelesTrak SupGP

Epoca: Sep 14, 2026, 20:56 UTC

1 63970C 25099U   26257.87270833  .00001163  00000+0  42128-4 0  2578
2 63970  43.0028 187.3869 0001409 262.5091 120.7487 15.27580592    19

Traccia STARLINK-34084 in tempo reale con AllMySat

Download on the App Store